This is the latest recevied weather packets stored in our database for station/object EA1JVZ-1. If no packets are shown the sender has not sent any weather packets the latest 10 day(s).
| Time | Temp. | Humidity | Pressure | Rain* | Wind** | Luminosity | Snow |
|---|---|---|---|---|---|---|---|
| 1777980949 | 16.11° C | 44% | 1024.2 hPa | - | - | - | - |
| 1777980049 | 15° C | 47% | 1024.3 hPa | - | - | - | - |
| 1777979149 | 13.33° C | 47% | 1024.3 hPa | - | - | - | - |
| 1777978249 | 13.33° C | 47% | 1024.4 hPa | - | - | - | - |
| 1777977348 | 12.22° C | 48% | 1024.4 hPa | - | - | - | - |
| 1777976447 | 12.22° C | 48% | 1024.5 hPa | - | - | - | - |
| 1777975547 | 12.22° C | 49% | 1024.4 hPa | - | - | - | - |
| 1777974646 | 11.67° C | 48% | 1024.3 hPa | - | - | - | - |
| 1777973792 | 11.11° C | 49% | 1024.4 hPa | - | - | - | - |
| 1777972891 | 10.56° C | 50% | 1024.3 hPa | - | - | - | - |
| 1777971991 | 10° C | 51% | 1024.3 hPa | - | - | - | - |
| 1777971091 | 9.44° C | 50% | 1024.3 hPa | - | - | - | - |
| 1777970190 | 9.44° C | 51% | 1024.3 hPa | - | - | - | - |
| 1777969290 | 8.89° C | 51% | 1024.4 hPa | - | - | - | - |
| 1777968390 | 8.89° C | 52% | 1024.4 hPa | - | - | - | - |
| 1777967490 | 8.89° C | 51% | 1024.4 hPa | - | - | - | - |
| 1777966590 | 8.89° C | 52% | 1024.4 hPa | - | - | - | - |
| 1777965690 | 8.33° C | 52% | 1024.5 hPa | - | - | - | - |
| 1777964789 | 8.33° C | 52% | 1024.5 hPa | - | - | - | - |
| 1777963889 | 8.33° C | 52% | 1024.4 hPa | - | - | - | - |
| 1777962989 | 7.78° C | 53% | 1024.4 hPa | - | - | - | - |
| 1777962089 | 7.78° C | 53% | 1024.1 hPa | - | - | - | - |
| 1777961189 | 7.22° C | 54% | 1024 hPa | - | - | - | - |
| 1777960289 | 7.22° C | 54% | 1024 hPa | - | - | - | - |
| 1777959388 | 7.22° C | 55% | 1024 hPa | - | - | - | - |
* Rain since midnight (hover to see other rain measurements)
** Current wind speed in m/s (hover to see current wind gust speed)